Miscellaneous Local Product
Issued by NWS Hastings, NE

Home | Current Version | Previous Version | Graphics & Text | Print | Product List | Glossary On
Versions: 1 2 3 4 5 6 7 8 9 10 11 12 13 14 15 16 17 18 19 20 21 22 23 24 25 26 27 28 29 30 31 32 33 34 35 36 37 38 39 40 41 42 43 44 45 46 47 48 49 50
670
AXUS43 KGID 050402
MISGRI

GID CWA HOURLY WEATHER ROUNDUP
NATIONAL WEATHER SERVICE HASTINGS NE
1000 PM CST SUN DEC 04 2016

NOTE: "FAIR" INDICATES FEW OR NO CLOUDS BELOW 12,000 FEET WITH NO
SIGNIFICANT WEATHER AND/OR OBSTRUCTIONS TO VISIBILITY.

...SOUTH CENTRAL NEBRASKA...

CITY           SKY/WX    TMP DP  RH WIND       PRES   REMARKS
GRAND ISLAND   CLEAR     33  28  81 S8        29.84F WCI  26
HASTINGS       CLEAR     36  27  69 S9        29.85F WCI  29
KEARNEY        CLOUDY    34  21  60 S10       29.82F WCI  26
ORD            CLEAR     30  18  60 S9        29.78F WCI  22
YORK           CLEAR     32  32 100 S10       29.87S WCI  24
AURORA         CLEAR     35  31  87 SW10      29.85F WCI  27
LEXINGTON      PTCLDY    40  18  40 S17       29.79F WCI  32
HOLDREGE       CLOUDY    35  20  54 S14       29.82F WCI  26
HEBRON         CLEAR     36  30  78 S12       29.89F WCI  28

...NEBRASKA PANHANDLE...

CITY           SKY/WX    TMP DP  RH WIND       PRES   REMARKS
CHADRON        PTCLDY    35  18  49 SW3       29.61F
ALLIANCE       CLOUDY    25  14  63 E7        29.66F WCI  17
SCOTTSBLUFF    CLOUDY    32  17  54 E5        29.67F WCI  27
SIDNEY         CLOUDY    40  16  37 SW14      29.72F WCI  32

...WESTERN AND NORTH CENTRAL NEBRASKA...

CITY           SKY/WX    TMP DP  RH WIND       PRES   REMARKS
VALENTINE      CLOUDY    37  16  42 S18       29.66F WCI  27
AINSWORTH      CLEAR     33  19  58 S7        29.69F WCI  26
ONEILL         CLEAR     32  22  66 S7        29.75F WCI  26
BROKEN BOW     CLOUDY    34  19  54 SE8       29.76F WCI  27
IMPERIAL       CLOUDY    37  13  37 SW15      29.76F WCI  28
NORTH PLATTE   CLEAR     37  16  42 S15       29.74F WCI  28
MCCOOK         CLOUDY    37  15  40 SW13      29.79F WCI  29

...EASTERN NEBRASKA...

CITY           SKY/WX    TMP DP  RH WIND       PRES   REMARKS
NORFOLK        CLEAR     35  29  78 S16       29.81S WCI  25
SO SIOUX CITY  CLEAR     32  30  92 E9        29.85S WCI  24
TEKAMAH        CLEAR     33  30  88 SE8       29.88S WCI  26
COLUMBUS       CLEAR     36  30  80 S10       29.85S WCI  28
ALBION         CLEAR     33  28  83 SE3       29.82S
OMAHA EPPLEY   CLEAR     30  26  85 SE9       29.90F WCI  22
OFFUTT AFB     CLEAR     24  24 100 CALM      29.90F FOG
MILLARD        CLEAR     31  29  93 CALM      29.90F
LINCOLN        CLEAR     33  30  88 SE3       29.90F
NEBRASKA CITY  CLEAR     35  33  91 SW10      29.92S WCI  27
BEATRICE       CLEAR     35  32  88 S10       29.91F WCI  27
FALLS CITY     CLEAR     34  32  92 S6        29.95S WCI  29

...NORTHERN KANSAS...

CITY           SKY/WX    TMP DP  RH WIND       PRES   REMARKS
GOODLAND       CLOUDY    35  14  42 S20       29.80F WCI  24
HILL CITY      CLEAR     33  21  61 SW7       29.87F WCI  27
NORTON         CLEAR     36  16  44 S12G17    29.83F WCI  27
PHILLIPSBURG   CLEAR     36  25  64 S8        29.87F WCI  29
SMITH CENTER   CLEAR     30  25  80 S6        29.89F WCI  24
BELOIT         CLEAR     34  27  75 S8        29.91S WCI  27
HAYS           CLEAR     32  25  75 SW7       29.92F WCI  26
RUSSELL        CLEAR     34  27  75 S12       29.90F WCI  25
CONCORDIA      CLEAR     38  31  76 S14       29.92F WCI  30
SALINA         CLEAR     31  29  92 S7        29.95F WCI  24
TOPEKA         FOG       29  26  89 CALM      29.99F VSB 1/4



USA.gov is the U.S. government's official web portal to all federal, state and local government web resources and services.